MCF1TR LHBP-LZKZ

Flight info

Callsign MCF1TR
Flight time 0h 24m
Altitude 19000
Route WITRI DCT LATOF
Aircraft B738/M-SDE2E3FGHIRWXY/LB1

Departure

Time 2026-04-21 21:12
Airport Budapest Liszt Ferenc International Airport (LHBP)

Arrival

Time 2026-04-21 21:36
Airport Košice International Airport (LZKZ)
Time Latitude Longitude Altitude Speed Heading
2026-04-21 20:29 47.43511 19.26478 456 ft 0 kts 222°
2026-04-21 21:01 47.43526 19.26499 456 ft 3 kts 223°
2026-04-21 21:01 47.43540 19.26528 457 ft 4 kts 270°
2026-04-21 21:01 47.43537 19.26553 457 ft 4 kts 299°
2026-04-21 21:01 47.43515 19.26594 454 ft 4 kts 314°
2026-04-21 21:02 47.43508 19.26605 455 ft 0 kts 312°
2026-04-21 21:06 47.43524 19.26578 454 ft 8 kts 312°
2026-04-21 21:07 47.43578 19.26490 457 ft 13 kts 312°
2026-04-21 21:07 47.43631 19.26405 457 ft 11 kts 312°
2026-04-21 21:07 47.43683 19.26348 456 ft 9 kts 355°
2026-04-21 21:07 47.43734 19.26396 457 ft 9 kts 41°
2026-04-21 21:08 47.43789 19.26410 457 ft 9 kts 330°
2026-04-21 21:08 47.43839 19.26336 457 ft 11 kts 313°
2026-04-21 21:08 47.43897 19.26242 457 ft 13 kts 312°
2026-04-21 21:08 47.43977 19.26237 455 ft 13 kts 40°
2026-04-21 21:09 47.43997 19.26263 459 ft 0 kts 41°
2026-04-21 21:09 47.44017 19.26289 459 ft 7 kts 41°
2026-04-21 21:10 47.44055 19.26364 465 ft 11 kts 64°
2026-04-21 21:10 47.44071 19.26484 470 ft 16 kts 95°
2026-04-21 21:10 47.44050 19.26554 468 ft 0 kts 132°
2026-04-21 21:10 47.44047 19.26560 469 ft 2 kts 132°
2026-04-21 21:11 47.43992 19.26648 469 ft 34 kts 132°
2026-04-21 21:11 47.43666 19.27175 471 ft 103 kts 132°
2026-04-21 21:11 47.43047 19.28185 475 ft 158 kts 131°
2026-04-21 21:11 47.42272 19.29405 990 ft 166 kts 134°
2026-04-21 21:12 47.41334 19.30378 1752 ft 166 kts 156°
2026-04-21 21:12 47.40401 19.31311 2420 ft 166 kts 116°
2026-04-21 21:12 47.40058 19.33045 2780 ft 191 kts 102°
2026-04-21 21:12 47.39615 19.35030 3001 ft 216 kts 109°
2026-04-21 21:13 47.38999 19.37116 3458 ft 227 kts 113°
2026-04-21 21:13 47.38326 19.39255 4004 ft 236 kts 105°
2026-04-21 21:13 47.38400 19.41699 4503 ft 246 kts 70°
2026-04-21 21:13 47.39263 19.43899 5333 ft 251 kts 50°
2026-04-21 21:14 47.40483 19.45767 6168 ft 255 kts 45°
2026-04-21 21:14 47.41781 19.47576 6973 ft 259 kts 44°
2026-04-21 21:14 47.43115 19.49399 7755 ft 264 kts 39°
2026-04-21 21:14 47.44611 19.50997 8530 ft 268 kts 39°
2026-04-21 21:15 47.45979 19.52895 9345 ft 271 kts 44°
2026-04-21 21:15 47.47278 19.54931 10168 ft 274 kts 45°
2026-04-21 21:15 47.48619 19.57061 10505 ft 294 kts 45°
2026-04-21 21:15 47.50070 19.59348 10688 ft 317 kts 45°
2026-04-21 21:16 47.51641 19.61802 10870 ft 339 kts 45°
2026-04-21 21:16 47.53316 19.64400 11030 ft 359 kts 44°
2026-04-21 21:16 47.55085 19.67128 11286 ft 374 kts 44°
2026-04-21 21:16 47.56908 19.69927 11803 ft 381 kts 44°
2026-04-21 21:17 47.58755 19.72758 12441 ft 384 kts 44°
2026-04-21 21:17 47.60596 19.75575 13058 ft 389 kts 44°
2026-04-21 21:17 47.62492 19.78473 13688 ft 394 kts 44°
2026-04-21 21:17 47.64408 19.81402 14285 ft 399 kts 44°
2026-04-21 21:18 47.66347 19.84368 14932 ft 402 kts 44°
2026-04-21 21:18 47.68298 19.87355 15582 ft 405 kts 44°
2026-04-21 21:18 47.70266 19.90372 16226 ft 408 kts 44°
2026-04-21 21:18 47.72246 19.93408 16842 ft 411 kts 44°
2026-04-21 21:19 47.74247 19.96482 17131 ft 417 kts 44°
2026-04-21 21:19 47.76269 19.99592 17130 ft 419 kts 44°
2026-04-21 21:19 47.78284 20.02696 17134 ft 416 kts 44°
2026-04-21 21:19 47.80296 20.05799 17133 ft 417 kts 45°
2026-04-21 21:20 47.82311 20.08909 17136 ft 417 kts 45°
2026-04-21 21:20 47.84323 20.12019 17134 ft 418 kts 45°
2026-04-21 21:20 47.86339 20.15138 17126 ft 418 kts 45°
2026-04-21 21:20 47.88351 20.18254 17130 ft 418 kts 45°
2026-04-21 21:21 47.90366 20.21380 17127 ft 417 kts 45°
2026-04-21 21:21 47.92374 20.24499 17125 ft 417 kts 45°
2026-04-21 21:21 47.94382 20.27621 17129 ft 417 kts 45°
2026-04-21 21:21 47.96377 20.30726 16995 ft 410 kts 45°
2026-04-21 21:22 47.98335 20.33779 16395 ft 404 kts 45°
2026-04-21 21:22 48.00266 20.36792 15798 ft 399 kts 45°
2026-04-21 21:22 48.02172 20.39770 15165 ft 395 kts 45°
2026-04-21 21:22 48.04061 20.42722 14538 ft 391 kts 45°
2026-04-21 21:23 48.05931 20.45648 13911 ft 387 kts 45°
2026-04-21 21:23 48.07781 20.48549 13231 ft 384 kts 45°
2026-04-21 21:23 48.09617 20.51428 12578 ft 381 kts 45°
2026-04-21 21:23 48.11435 20.54283 11953 ft 376 kts 45°
2026-04-21 21:24 48.13227 20.57101 11375 ft 371 kts 45°
2026-04-21 21:24 48.14973 20.59848 11228 ft 356 kts 45°
2026-04-21 21:24 48.16644 20.62480 11059 ft 342 kts 45°
2026-04-21 21:24 48.18253 20.65017 10922 ft 330 kts 45°
2026-04-21 21:25 48.19806 20.67466 10785 ft 318 kts 45°
2026-04-21 21:25 48.21301 20.69825 10654 ft 307 kts 45°
2026-04-21 21:25 48.22752 20.72116 10472 ft 299 kts 44°
2026-04-21 21:25 48.24166 20.74350 10310 ft 291 kts 45°
2026-04-21 21:26 48.25539 20.76526 10175 ft 283 kts 45°
2026-04-21 21:26 48.26870 20.78639 10050 ft 274 kts 44°
2026-04-21 21:26 48.28200 20.80640 9811 ft 269 kts 38°
2026-04-21 21:26 48.29687 20.82260 9522 ft 259 kts 33°
2026-04-21 21:27 48.31176 20.83725 9217 ft 258 kts 32°
2026-04-21 21:27 48.32676 20.85191 8917 ft 257 kts 33°
2026-04-21 21:27 48.34169 20.86667 8610 ft 256 kts 33°
2026-04-21 21:27 48.35653 20.88147 8311 ft 256 kts 33°
2026-04-21 21:28 48.37127 20.89631 8008 ft 255 kts 33°
2026-04-21 21:28 48.38593 20.91114 7715 ft 254 kts 34°
2026-04-21 21:28 48.41515 20.94085 7123 ft 253 kts 34°
2026-04-21 21:29 48.42973 20.95573 6822 ft 252 kts 34°
2026-04-21 21:29 48.44420 20.97052 6533 ft 251 kts 34°
2026-04-21 21:29 48.45868 20.98535 6215 ft 251 kts 34°
2026-04-21 21:29 48.47305 21.00009 5914 ft 250 kts 34°
2026-04-21 21:30 48.48714 21.01535 5598 ft 250 kts 43°
2026-04-21 21:30 48.49616 21.03709 5375 ft 242 kts 71°
2026-04-21 21:30 48.49840 21.06129 5278 ft 227 kts 89°
2026-04-21 21:30 48.49593 21.08391 5161 ft 211 kts 98°
2026-04-21 21:31 48.49267 21.10457 5029 ft 193 kts 99°
2026-04-21 21:31 48.48967 21.12330 4788 ft 177 kts 98°
2026-04-21 21:31 48.48679 21.14158 4279 ft 177 kts 98°
2026-04-21 21:31 48.48697 21.15874 4099 ft 157 kts 66°
2026-04-21 21:32 48.49236 21.17307 3955 ft 157 kts 47°
2026-04-21 21:32 48.50117 21.18156 3805 ft 150 kts 19°
2026-04-21 21:32 48.51108 21.18657 3608 ft 151 kts 19°
2026-04-21 21:32 48.52117 21.19101 3423 ft 152 kts 17°
2026-04-21 21:33 48.53139 21.19490 3214 ft 151 kts 15°
2026-04-21 21:33 48.54162 21.19858 2998 ft 150 kts 15°
2026-04-21 21:33 48.55175 21.20215 2789 ft 149 kts 14°
2026-04-21 21:33 48.56183 21.20566 2586 ft 149 kts 14°
2026-04-21 21:34 48.57199 21.20922 2388 ft 150 kts 14°
2026-04-21 21:34 48.58178 21.21267 2176 ft 143 kts 13°
2026-04-21 21:34 48.59142 21.21605 1985 ft 138 kts 13°
2026-04-21 21:34 48.60074 21.21931 1794 ft 137 kts 13°
2026-04-21 21:35 48.60992 21.22255 1586 ft 138 kts 13°
2026-04-21 21:35 48.61936 21.22586 1393 ft 141 kts 12°
2026-04-21 21:35 48.62910 21.22927 1208 ft 146 kts 12°
2026-04-21 21:35 48.63923 21.23285 1011 ft 151 kts 12°
2026-04-21 21:36 48.64946 21.23644 820 ft 151 kts 11°
2026-04-21 21:36 48.65936 21.23988 756 ft 133 kts 13°
2026-04-21 21:36 48.66627 21.24231 758 ft 71 kts 12°
2026-04-21 21:36 48.66975 21.24352 759 ft 45 kts 13°
2026-04-21 21:37 48.67194 21.24421 754 ft 13 kts 351°
2026-04-21 21:37 48.67244 21.24312 756 ft 13 kts 284°
2026-04-21 21:37 48.67250 21.24272 752 ft 0 kts 284°
2026-04-21 21:38 48.67251 21.24269 753 ft 1 kts 284°
2026-04-21 21:38 48.67253 21.24255 755 ft 3 kts 284°
2026-04-21 21:38 48.67266 21.24172 753 ft 12 kts 283°
2026-04-21 21:39 48.67287 21.24039 756 ft 13 kts 283°
2026-04-21 21:39 48.67308 21.23925 754 ft 9 kts 309°
2026-04-21 21:39 48.67338 21.23877 756 ft 2 kts 278°
2026-04-21 21:39 48.67332 21.23853 754 ft 2 kts 238°
2026-04-21 21:40 48.67331 21.23851 754 ft 0 kts 236°